This is the latest recevied weather packets stored in our database for station/object N8TWM-13. If no packets are shown the sender has not sent any weather packets the latest 10 day(s).
| Time | Temp. | Humidity | Pressure | Rain* | Wind** | Luminosity | Snow |
|---|---|---|---|---|---|---|---|
| 1788545220 | 25° C | 79% | 1018.5 hPa | 0 mm | - | 326 W/m² | - |
| 1788544915 | 25° C | 79% | 1018.6 hPa | 0 mm | - | 257 W/m² | - |
| 1788544626 | 25° C | 80% | 1019 hPa | 0 mm | - | 235 W/m² | - |
| 1788544313 | 25° C | 81% | 1019.1 hPa | 0 mm | - | 248 W/m² | - |
| 1788544008 | 25° C | 82% | 1019.1 hPa | 0 mm | - | 257 W/m² | - |
| 1788543704 | 25° C | 81% | 1018.5 hPa | 0 mm | - | 285 W/m² | - |
| 1788543399 | 25° C | 82% | 1018.6 hPa | 0 mm | - | 300 W/m² | - |
| 1788543094 | 25° C | 82% | 1018.7 hPa | 0 mm | - | 306 W/m² | - |
| 1788542791 | 25° C | 81% | 1018.8 hPa | 0 mm | - | 199 W/m² | - |
| 1788542490 | 25° C | 81% | 1018.6 hPa | 0 mm | - | 163 W/m² | - |
| 1788542185 | 25.56° C | 80% | 1018.7 hPa | 0 mm | - | 134 W/m² | - |
| 1788541880 | 25.56° C | 79% | 1018.4 hPa | 0 mm | - | 130 W/m² | - |
| 1788541576 | 25° C | 80% | 1018.5 hPa | 0 mm | - | 254 W/m² | - |
| 1788541272 | 25° C | 80% | 1018.7 hPa | 0 mm | - | 150 W/m² | - |
| 1788540971 | 25° C | 80% | 1018.8 hPa | 0 mm | - | 103 W/m² | - |
| 1788540670 | 25° C | 80% | 1018.7 hPa | 0 mm | - | 157 W/m² | - |
| 1788540365 | 25° C | 80% | 1018.7 hPa | 0 mm | - | 154 W/m² | - |
| 1788540061 | 25° C | 80% | 1018.9 hPa | 0 mm | - | 93 W/m² | - |
| 1788539778 | 25° C | 79% | 1018.6 hPa | 0 mm | - | 93 W/m² | - |
| 1788539451 | 25.56° C | 79% | 1018.7 hPa | 0 mm | - | 212 W/m² | - |
| 1788539150 | 25° C | 79% | 1018.7 hPa | 0 mm | - | 218 W/m² | - |
| 1788538846 | 25.56° C | 79% | 1018.7 hPa | 0 mm | - | 191 W/m² | - |
| 1788538540 | 25.56° C | 78% | 1018.6 hPa | 0 mm | - | 95 W/m² | - |
| 1788538236 | 25.56° C | 79% | 1018.2 hPa | 0 mm | - | 115 W/m² | - |
| 1788537931 | 26.67° C | 78% | 1018.4 hPa | 0 mm | - | 47 W/m² | - |
* Rain latest hour (hover to see other rain measurements)
** Current wind speed in m/s (hover to see current wind gust speed)